• Em Portugal
  • Lista de países
  • Para 7 dias
  • Temperatura da água
  • Mapas de satélite
  • Mapa do tempo
  • Widgets de tempo
  • user-avatar
    Iniciar Sessão

    Previsão horária em Lubango

    Hoje, 23 Setembro, Domingo

    Tempo Temperatura Precipitação Vento Pressão Humidade
    00:00 +16°C° 0 mm 1 m/s 608 mmHg 63%
    01:00 +14°C° 0 mm 0 m/s 608 mmHg 66%
    02:00 +15°C° 0 mm 1 m/s 608 mmHg 65%
    03:00 +15°C° 0 mm 1 m/s 608 mmHg 63%
    04:00 +15°C° 0 mm 1 m/s 607 mmHg 62%
    05:00 +16°C° 0 mm 1 m/s 608 mmHg 56%
    06:00 +18°C° 0 mm 1 m/s 609 mmHg 50%
    07:00 +20°C° 0 mm 1 m/s 610 mmHg 40%
    08:00 +23°C° 0 mm 1 m/s 611 mmHg 32%
    09:00 +26°C° 0 mm 2 m/s 612 mmHg 24%
    10:00 +29°C° 0 mm 3 m/s 613 mmHg 17%
    11:00 +30°C° 0 mm 3 m/s 613 mmHg 15%
    12:00 +31°C° 0 mm 3 m/s 613 mmHg 13%
    13:00 +31°C° 0 mm 3 m/s 612 mmHg 16%
    14:00 +30°C° 0 mm 3 m/s 612 mmHg 17%
    15:00 +30°C° 0 mm 3 m/s 611 mmHg 17%
    16:00 +30°C° 0 mm 3 m/s 611 mmHg 18%
    17:00 +27°C° 0 mm 3 m/s 610 mmHg 27%
    18:00 +24°C° 0 mm 2 m/s 609 mmHg 37%
    19:00 +20°C° 0 mm 2 m/s 609 mmHg 46%
    20:00 +19°C° 0 mm 2 m/s 609 mmHg 52%
    21:00 +19°C° 0 mm 1 m/s 609 mmHg 57%
    22:00 +16°C° 0 mm 1 m/s 609 mmHg 63%
    23:00 +16°C° 0 mm 1 m/s 608 mmHg 64%

    Amanhã, 24 Setembro, Segunda-feira

    Tempo Temperatura Precipitação Vento Pressão Humidade
    00:00 +16°C° 0 mm 1 m/s 608 mmHg 66%
    01:00 +15°C° 0 mm 1 m/s 608 mmHg 67%
    02:00 +15°C° 0 mm 1 m/s 607 mmHg 68%
    03:00 +14°C° 0 mm 1 m/s 607 mmHg 68%
    04:00 +14°C° 0 mm 1 m/s 607 mmHg 68%
    05:00 +15°C° 0 mm 1 m/s 608 mmHg 63%
    06:00 +15°C° 0 mm 0 m/s 608 mmHg 57%
    07:00 +16°C° 0 mm 0 m/s 609 mmHg 52%
    08:00 +22°C° 0 mm 1 m/s 610 mmHg 42%
    09:00 +25°C° 0 mm 1 m/s 612 mmHg 31%
    10:00 +28°C° 0 mm 2 m/s 613 mmHg 21%
    11:00 +29°C° 0 mm 2 m/s 613 mmHg 19%
    12:00 +31°C° 0 mm 3 m/s 613 mmHg 18%
    13:00 +33°C° 0 mm 3 m/s 613 mmHg 16%
    14:00 +30°C° 0 mm 3 m/s 612 mmHg 20%
    15:00 +29°C° 0 mm 4 m/s 611 mmHg 24%
    16:00 +27°C° 0 mm 4 m/s 610 mmHg 29%
    17:00 +23°C° 0 mm 4 m/s 609 mmHg 38%
    18:00 +21°C° 0 mm 3 m/s 609 mmHg 47%
    19:00 +19°C° 0 mm 2 m/s 609 mmHg 56%
    20:00 +18°C° 0 mm 2 m/s 609 mmHg 61%
    21:00 +17°C° 0 mm 2 m/s 609 mmHg 66%
    22:00 +16°C° 0 mm 1 m/s 609 mmHg 71%
    23:00 +15°C° 0 mm 1 m/s 609 mmHg 73%

    Depois de amanhã, 25 Setembro, Terça-feira

    Tempo Temperatura Precipitação Vento Pressão Humidade
    00:00 +15°C° 0 mm 1 m/s 609 mmHg 74%
    01:00 +14°C° 0 mm 1 m/s 608 mmHg 76%
    02:00 +14°C° 0 mm 1 m/s 608 mmHg 76%
    03:00 +13°C° 0 mm 0 m/s 608 mmHg 76%
    04:00 +13°C° 0 mm 0 m/s 608 mmHg 76%
    05:00 +14°C° 0 mm 0 m/s 608 mmHg 70%
    06:00 +16°C° 0 mm 1 m/s 609 mmHg 63%
    07:00 +18°C° 0 mm 1 m/s 609 mmHg 57%
    08:00 +21°C° 0 mm 1 m/s 611 mmHg 46%
    09:00 +24°C° 0 mm 2 m/s 612 mmHg 34%
    10:00 +27°C° 0 mm 3 m/s 614 mmHg 23%
    11:00 +28°C° 0 mm 3 m/s 613 mmHg 21%
    12:00 +29°C° 0 mm 3 m/s 613 mmHg 19%
    13:00 +30°C° 0 mm 3 m/s 612 mmHg 18%
    14:00 +30°C° 0 mm 4 m/s 612 mmHg 20%
    15:00 +29°C° 0 mm 4 m/s 611 mmHg 22%
    16:00 +28°C° 0 mm 5 m/s 610 mmHg 24%
    17:00 +25°C° 0 mm 4 m/s 610 mmHg 34%
    18:00 +21°C° 0 mm 3 m/s 609 mmHg 43%
    19:00 +18°C° 0 mm 2 m/s 609 mmHg 53%
    20:00 +17°C° 0 mm 2 m/s 609 mmHg 57%
    21:00 +16°C° 0 mm 1 m/s 609 mmHg 62%
    22:00 +15°C° 0 mm 1 m/s 609 mmHg 66%
    23:00 +15°C° 0 mm 1 m/s 608 mmHg 67%

    26 Setembro, Quarta-feira

    Tempo Temperatura Precipitação Vento Pressão Humidade
    00:00 +14°C° 0 mm 0 m/s 608 mmHg 67%
    01:00 +13°C° 0 mm 0 m/s 608 mmHg 67%
    02:00 +13°C° 0 mm 0 m/s 608 mmHg 65%
    03:00 +14°C° 0 mm 1 m/s 607 mmHg 63%
    04:00 +14°C° 0 mm 1 m/s 607 mmHg 61%
    05:00 +15°C° 0 mm 1 m/s 608 mmHg 54%
    06:00 +16°C° 0 mm 1 m/s 609 mmHg 47%
    07:00 +18°C° 0 mm 1 m/s 610 mmHg 40%
    08:00 +21°C° 0 mm 2 m/s 611 mmHg 32%
    09:00 +25°C° 0 mm 2 m/s 612 mmHg 24%
    10:00 +29°C° 0 mm 3 m/s 614 mmHg 16%
    11:00 +30°C° 0 mm 3 m/s 613 mmHg 15%
    12:00 +31°C° 0 mm 3 m/s 613 mmHg 14%
    13:00 +33°C° 0 mm 3 m/s 612 mmHg 13%
    14:00 +31°C° 0 mm 3 m/s 612 mmHg 15%
    15:00 +30°C° 0 mm 4 m/s 611 mmHg 17%
    16:00 +29°C° 0 mm 4 m/s 610 mmHg 19%
    17:00 +26°C° 0 mm 3 m/s 610 mmHg 29%
    18:00 +22°C° 0 mm 3 m/s 609 mmHg 38%
    19:00 +19°C° 0 mm 2 m/s 609 mmHg 48%
    20:00 +18°C° 0 mm 2 m/s 609 mmHg 52%
    21:00 +18°C° 0 mm 1 m/s 609 mmHg 56%
    22:00 +16°C° 0 mm 1 m/s 609 mmHg 60%
    23:00 +15°C° 0 mm 1 m/s 608 mmHg 60%

    27 Setembro, Quinta-feira

    Tempo Temperatura Precipitação Vento Pressão Humidade
    00:00 +15°C° 0 mm 1 m/s 608 mmHg 60%
    01:00 +14°C° 0 mm 1 m/s 608 mmHg 60%
    02:00 +14°C° 0 mm 1 m/s 607 mmHg 58%
    03:00 +14°C° 0 mm 1 m/s 607 mmHg 57%
    04:00 +14°C° 0 mm 1 m/s 607 mmHg 56%
    05:00 +15°C° 0 mm 1 m/s 608 mmHg 49%
    06:00 +16°C° 0 mm 1 m/s 609 mmHg 43%
    07:00 +19°C° 0 mm 1 m/s 610 mmHg 36%
    08:00 +21°C° 0 mm 2 m/s 611 mmHg 28%
    09:00 +26°C° 0 mm 2 m/s 612 mmHg 21%
    10:00 +30°C° 0 mm 3 m/s 614 mmHg 13%
    11:00 +31°C° 0 mm 3 m/s 613 mmHg 12%
    12:00 +33°C° 0 mm 3 m/s 613 mmHg 11%
    13:00 +35°C° 0 mm 3 m/s 612 mmHg 10%
    14:00 +34°C° 0 mm 4 m/s 612 mmHg 11%
    15:00 +33°C° 0 mm 4 m/s 611 mmHg 13%
    16:00 +32°C° 0 mm 4 m/s 610 mmHg 14%
    17:00 +27°C° 0 mm 4 m/s 610 mmHg 21%
    18:00 +24°C° 0 mm 3 m/s 609 mmHg 29%
    19:00 +20°C° 0 mm 2 m/s 608 mmHg 36%
    20:00 +19°C° 0 mm 2 m/s 608 mmHg 40%
    21:00 +19°C° 0 mm 1 m/s 608 mmHg 43%
    22:00 +18°C° 0 mm 1 m/s 608 mmHg 46%
    23:00 +16°C° 0 mm 1 m/s 608 mmHg 47%

    28 Setembro, Sexta-feira

    Tempo Temperatura Precipitação Vento Pressão Humidade
    00:00 +16°C° 0 mm 1 m/s 608 mmHg 48%
    01:00 +15°C° 0 mm 1 m/s 607 mmHg 49%
    02:00 +15°C° 0 mm 1 m/s 607 mmHg 48%
    03:00 +15°C° 0 mm 1 m/s 607 mmHg 46%
    04:00 +15°C° 0 mm 1 m/s 607 mmHg 45%
    05:00 +16°C° 0 mm 2 m/s 608 mmHg 39%
    06:00 +18°C° 0 mm 2 m/s 609 mmHg 34%
    07:00 +19°C° 0 mm 2 m/s 610 mmHg 28%
    08:00 +22°C° 0 mm 3 m/s 611 mmHg 23%
    09:00 +27°C° 0 mm 4 m/s 612 mmHg 18%
    10:00 +30°C° 0 mm 4 m/s 613 mmHg 12%
    11:00 +33°C° 0 mm 4 m/s 613 mmHg 12%
    12:00 +34°C° 0 mm 4 m/s 612 mmHg 11%
    13:00 +36°C° 0 mm 4 m/s 612 mmHg 11%
    14:00 +34°C° 0 mm 3 m/s 611 mmHg 13%
    15:00 +31°C° 0 mm 3 m/s 610 mmHg 16%
    16:00 +30°C° 0 mm 3 m/s 610 mmHg 18%
    17:00 +27°C° 0 mm 3 m/s 609 mmHg 26%
    18:00 +24°C° 0 mm 2 m/s 609 mmHg 33%
    19:00 +20°C° 0 mm 2 m/s 608 mmHg 41%
    20:00 +19°C° 0 mm 2 m/s 608 mmHg 44%
    21:00 +19°C° 0 mm 1 m/s 608 mmHg 47%
    22:00 +19°C° 0 mm 1 m/s 608 mmHg 49%
    23:00 +18°C° 0.1 mm 1 m/s 608 mmHg 51%
    Mostrar mais